Regional Weather Roundup
Issued by NWS Cleveland, OH

Home | Current Version | Previous Version | Text Only | Print | Product List | Glossary Off
Versions: 1 2 3 4 5 6 7 8 9 10 11 12 13 14 15 16 17 18 19 20 21 22 23 24 25 26 27 28 29 30 31 32 33 34 35 36 37 38 39 40 41 42 43 44 45 46 47 48 49 50

000
ASUS41 KCLE 181500
RWRCLE
OHIO REGIONAL WEATHER ROUNDUP
NATIONAL WEATHER SERVICE WILMINGTON, OH
1100 AM EDT THU SEP 18 2014

NOTE: "FAIR" INDICATES FEW OR NO CLOUDS BELOW 12,000 FEET WITH NO
SIGNIFICANT WEATHER AND/OR OBSTRUCTIONS TO VISIBILITY.

OHZ001>008-015>018-024>027-034-035-043-044-181600-
   NORTHWEST OHIO

CITY           SKY/WX    TMP DP  RH WIND       PRES   REMARKS
DEFIANCE       SUNNY     62  50  64 VRB5      30.14R
FINDLAY        SUNNY     66  51  58 NE6       30.12R
TOLEDO EXPRESS SUNNY     62  51  67 CALM      30.13R
TOLEDO METCALF SUNNY     64  54  69 VRB5      30.14R
LIMA           SUNNY     64  51  62 NE6       30.13R
$$

OHZ009>014-019>023-028>033-038-089-181600-
   NORTHEAST OHIO

CITY           SKY/WX    TMP DP  RH WIND       PRES   REMARKS
CLE-HOPKINS    MOSUNNY   65  52  62 NE8       30.13R
CLE-LAKEFRONT  MOSUNNY   66  52  60 N5        30.10R
CUY CO. ARPT   MOSUNNY   61  55  82 N10       30.11R
LORAIN-ELYRIA  MOSUNNY   67  53  61 NE7       30.12R
ASHTABULA      MOSUNNY   65  53  65 VRB3      30.10R
AKRON-CANTON   SUNNY     65  47  52 N8        30.11R
WOOSTER        NOT AVBL
MANSFIELD      SUNNY     65  48  54 N8        30.12R
YOUNGSTOWN     MOSUNNY   63  51  65 N8        30.10R
$$

OHZ042-051>053-060>062-070>072-077>081-181600-
  SOUTHWEST OHIO

CITY           SKY/WX    TMP DP  RH WIND       PRES   REMARKS
CINC-COVINGTON SUNNY     65  50  58 NE9       30.10R
CINC-LUNKEN    SUNNY     64  53  67 NE3       30.11R
HAMILTON       SUNNY     65  53  65 N3        30.12R
DAYTON         NOT AVBL
WRIGHT-PAT AFB SUNNY     63  50  61 VRB6      30.12R
DAYTON GENERAL SUNNY     66  51  58 CALM      30.12R
WILMINGTON     SUNNY     64  50  60 NE9       30.11R
$$

OHZ036-037-039>041-045>050-054>059-063>069-073>076-082>088-181600-
  CENTRAL AND SOUTHEAST OHIO

CITY           SKY/WX    TMP DP  RH WIND       PRES   REMARKS
COLUMBUS       SUNNY     68  45  43 E8        30.10R
OSU AIRPORT    SUNNY     65  48  54 N7        30.11R
BOLTON FIELD   SUNNY     64  50  59 NE6       30.11R
RICKENBACK AFB NOT AVBL
NEWARK         SUNNY     64  47  53 E8        30.10R
MARION         SUNNY     64  50  60 NE9       30.12R
LANCASTER      SUNNY     66  48  52 NE8       30.10R
ZANESVILLE     SUNNY     65  46  50 NE8       30.10R
NEW PHILLY     SUNNY     66  48  52 NE7       30.11R
$$



USA.gov is the U.S. government's official web portal to all federal, state and local government web resources and services.